{"data":{"norad_id":59933,"intl_designator":"2024-106M","name":"STARLINK-31853","alt_names":[],"object_type":"PAYLOAD","status":"ACTIVE","operator":null,"country":"US","launch_date":"2024-06-01","launch_site_code":"AFETR","launch_vehicle":null,"mission":null,"orbit_class":"UNKNOWN","rcs_meters":null,"size_class":null,"mass_kg":null,"dimensions":null,"purposes":["comms"],"wikipedia_slug":null,"has_3d_model":false,"image_url":null,"decayed_at":null,"tle_current":{"epoch":"2026-05-24T16:12:34.181568Z","epoch_age_seconds":106622,"freshness":"FRESH","line1":"1 59933U 24106M   26144.67539562  .00000336  00000+0  21744-4 0  9995","line2":"2 59933  43.0002 263.4125 0001265 266.5813  93.4894 15.27576560112148","mean_motion":15.2757656,"eccentricity":0.0001265,"inclination_deg":43.0002,"raan_deg":263.4125,"arg_perigee_deg":266.5813,"mean_anomaly_deg":93.4894,"bstar":2.1744e-5,"rev_number":11214,"period_min":94.26696099605,"perigee_km":482.19145531234,"apogee_km":483.92733800069,"semimajor_km":6861.1963966565,"source":"CELESTRAK","updated_at":"2026-05-25T13:38:19.123998Z"}}}